Temperature
6 6 5 5 5 5 5 4 4 4 4 4 4 4 4 4 4 4 4 3 3 3 3 3 3 4 4 4 4 4 5 5 5 6 6 6 6 6 7 7 7 7 7
6 5 5 5 5 4 4 4 4 4 4 4 4 4 4 4 4 3 3 3 3 3 3 3 3 3 4 4 4 4 4 5 5 5 6 6 6 6 6 6 6 6 6
5 5 5 4 4 4 4 4 3 3 3 3 3 3 3 3 3 3 3 3 3 3 3 3 3 3 3 4 4 4 4 5 5 5 5 6 5 5 5 6 6 6 6
4 4 4 4 4 3 3 3 3 3 3 3 3 3 3 3 3 3 2 2 2 3 3 3 3 3 3 4 4 4 4 4 5 5 5 5 5 5 5 5 5 5 5
4 4 3 3 3 3 3 3 3 3 3 2 2 3 2 2 2 2 2 2 2 2 3 3 3 3 3 3 3 4 4 4 5 5 5 5 5 5 5 5 4 4 5
3 3 3 3 3 2 2 2 2 2 2 2 2 2 2 2 2 2 2 2 2 2 2 3 3 3 3 3 3 4 4 4 4 4 4 4 4 5 4 4 4 4 4
3 2 2 2 2 2 2 2 2 2 2 2 2 2 2 2 2 2 2 2 2 2 2 2 3 3 3 3 3 3 4 4 4 4 4 4 4 5 4 4 4 4 4
2 2 2 1 1 1 1 1 1 1 1 1 1 1 1 2 1 2 2 2 2 2 2 2 2 3 3 3 3 3 4 4 4 4 4 5 5 4 4 4 4 4 3
1 1 1 1 1 0 0 0 0 0 1 1 1 1 1 1 2 2 2 2 2 2 2 2 2 2 3 3 3 3 3 4 4 4 4 4 4 4 4 4 3 3 2
1 0 0 0 -0 -0 -0 -0 -0 -0 0 0 0 1 1 1 1 1 1 1 2 2 2 2 2 2 3 3 3 3 3 3 3 3 4 4 4 3 4 3 3 3 3
-0 -0 -0 -0 -1 -1 -1 -1 -1 -1 -0 -0 -0 0 1 1 1 1 1 1 1 1 2 2 2 2 3 3 3 3 3 3 3 3 3 3 3 3 3 3 3 3 3
-1 -1 -1 -1 -1 -1 -1 -1 -1 -1 -1 -1 -0 -0 0 0 1 1 1 1 1 1 2 2 2 2 2 2 2 3 3 3 3 3 3 2 3 3 3 2 2 2 3
-1 -1 -1 -1 -2 -2 -2 -2 -1 -1 -1 -1 -1 -1 -0 0 0 1 1 1 1 1 1 2 2 2 2 2 2 2 3 3 2 2 2 2 2 2 2 2 2 2 2
-2 -2 -2 -2 -2 -2 -2 -2 -2 -2 -2 -2 -2 -1 -1 -1 -0 0 0 1 1 1 1 1 2 2 2 2 2 2 2 2 2 2 2 2 2 2 2 2 2 2 2
-3 -3 -2 -2 -2 -2 -2 -2 -2 -2 -2 -2 -2 -2 -2 -1 -1 -0 -0 0 1 1 1 1 1 1 1 1 1 1 1 2 2 1 1 1 1 1 1 1 2 2 1
-3 -3 -3 -3 -3 -3 -3 -3 -2 -2 -2 -2 -2 -2 -2 -1 -1 -1 -0 0 1 1 1 1 1 1 1 1 1 1 1 1 1 1 1 1 1 1 1 1 1 1 1
-4 -4 -4 -4 -4 -3 -3 -3 -3 -3 -2 -2 -2 -2 -2 -2 -1 -1 -0 0 0 1 1 1 1 1 1 1 1 1 1 1 1 1 1 1 1 1 1 1 1 1 0
-4 -4 -4 -4 -4 -4 -4 -4 -4 -4 -3 -3 -2 -2 -2 -2 -1 -1 -1 -0 0 0 1 0 0 1 1 1 1 0 1 0 0 1 1 1 1 1 0 0 0 0 0
-4 -4 -4 -4 -4 -4 -4 -4 -4 -4 -4 -4 -3 -2 -2 -2 -1 -1 -1 -1 -0 -0 0 0 0 0 0 0 0 0 0 0 0 0 0 0 0 1 0 0 0 -0 -0
-5 -5 -5 -5 -4 -4 -4 -5 -5 -4 -4 -4 -4 -3 -3 -3 -2 -2 -1 -1 -0 -0 -0 -0 0 0 0 0 0 0 0 0 0 0 0 0 0 0 0 -0 -0 -0 -1
-5 -5 -5 -5 -5 -5 -5 -5 -5 -5 -5 -5 -4 -4 -3 -3 -3 -2 -2 -1 -1 -1 -0 -0 -0 -0 -0 -0 -0 0 0 -0 0 0 0 0 0 -0 -0 -0 -1 -1 -1
-6 -6 -6 -6 -5 -6 -6 -5 -5 -5 -5 -5 -4 -4 -4 -3 -3 -3 -2 -2 -1 -1 -1 -1 -0 -0 -0 -0 -0 -0 -0 -0 -0 -0 -0 -0 -0 -0 -0 -1 -1 -1 -1
-6 -6 -6 -6 -6 -6 -6 -6 -6 -5 -5 -5 -5 -4 -4 -4 -3 -3 -2 -2 -1 -1 -1 -1 -1 -1 -1 -1 -0 -0 -0 -0 -0 -0 -0 -0 -0 -1 -1 -1 -1 -1 -1
-7 -6 -6 -6 -6 -6 -6 -6 -6 -6 -5 -5 -5 -5 -4 -4 -4 -3 -3 -2 -2 -2 -1 -1 -1 -1 -1 -1 -1 -1 -0 -0 -0 -0 -0 0 -0 -1 -1 -1 -1 -1 -2
-7 -7 -7 -7 -7 -6 -6 -6 -6 -6 -6 -5 -5 -5 -5 -4 -4 -3 -3 -3 -2 -2 -1 -1 -1 -1 -1 -1 -1 -1 -0 -0 -0 -0 -0 -0 -0 -1 -1 -1 -1 -2 -2
-7 -7 -7 -7 -7 -7 -6 -6 -6 -6 -6 -6 -5 -5 -5 -5 -4 -4 -3 -3 -2 -2 -1 -1 -1 -1 -1 -1 -1 -1 -1 -0 -0 -0 -0 -0 -1 -1 -1 -1 -1 -1 -1
Wind_Speed
6 6 6 7 7 8 8 9 9 8 8 9 9 10 10 10 9 9 10 10 11 12 11 12 12 11 9 8 8 8 8 8 9 6 3 3 4 5 5 5 6 7 8
5 5 6 7 7 7 8 8 8 8 8 9 9 10 10 10 10 10 11 11 12 13 13 12 13 11 11 9 8 9 9 9 7 7 5 3 3 5 4 4 3 4 5
5 5 6 7 7 8 8 8 7 8 9 9 9 10 11 11 11 11 11 12 13 13 13 13 13 12 12 10 10 10 8 8 6 5 5 3 2 3 2 2 2 2 3
5 5 6 7 7 8 8 8 8 8 9 9 10 11 11 11 11 11 11 12 12 12 12 12 13 12 12 11 10 10 8 7 6 6 4 3 3 2 3 3 1 1 1
5 6 7 7 7 7 8 8 8 8 9 9 10 10 10 9 10 10 10 11 11 12 11 12 12 13 14 12 10 9 8 7 6 5 4 3 3 3 3 2 2 1 0
6 7 7 7 7 7 8 8 8 8 9 9 9 10 10 10 14 16 13 11 11 11 11 11 11 11 14 16 16 13 11 9 8 7 5 6 6 4 3 4 3 2 1
6 7 7 7 7 8 9 9 9 8 8 9 9 9 11 12 16 17 17 12 11 11 11 10 9 9 11 9 11 11 11 13 12 9 8 8 7 7 6 5 4 2 2
6 7 7 7 8 8 8 9 9 8 9 9 10 10 10 13 16 17 17 12 10 10 10 10 9 9 9 8 7 6 6 6 8 7 7 7 6 7 7 6 4 2 2
7 7 7 7 8 8 9 9 9 9 9 9 9 10 11 12 16 16 15 8 8 9 9 9 9 9 10 9 7 6 5 3 3 5 6 6 7 8 7 5 5 4 2
8 8 7 7 7 9 9 9 8 8 9 9 10 9 10 11 14 15 14 6 6 6 6 6 10 10 10 9 7 6 6 4 4 3 3 4 5 6 6 6 7 6 3
8 8 8 7 8 9 8 8 8 8 8 8 10 9 9 10 12 13 11 5 4 4 4 4 5 8 8 8 6 6 7 5 4 4 3 3 2 2 3 3 3 5 4
7 7 8 8 8 8 8 8 8 8 8 8 9 9 7 7 9 9 9 8 5 3 3 2 3 6 6 6 5 6 7 5 4 4 3 2 2 2 3 3 3 2 2
8 8 8 8 7 7 7 8 7 6 6 7 7 8 7 6 6 9 8 7 5 2 2 3 4 6 5 4 5 6 5 4 5 4 3 2 2 3 4 4 4 5 6
8 8 8 8 8 7 6 6 6 6 7 7 7 7 7 6 5 4 4 3 2 0 2 4 5 6 5 4 4 4 3 4 5 4 4 3 3 3 3 4 4 5 5
8 8 8 7 7 7 7 6 7 6 7 9 7 6 6 6 7 8 5 2 1 1 2 3 3 4 3 3 3 3 3 4 4 4 4 4 3 3 3 4 4 4 5
7 7 6 6 6 6 7 8 10 10 14 14 11 9 6 7 9 8 6 4 2 1 2 3 3 3 3 3 3 3 3 3 4 4 4 5 4 5 5 4 4 5 6
7 7 6 6 6 6 6 7 8 10 12 11 10 9 8 8 7 5 3 2 2 1 3 3 3 3 3 3 4 4 3 3 4 4 5 5 5 6 6 5 5 6 6
7 8 8 6 6 6 6 6 6 7 8 7 8 9 9 8 7 5 3 1 1 1 3 3 3 3 3 4 4 4 4 4 4 5 5 5 6 6 6 5 5 6 6
6 6 6 5 5 5 5 5 5 6 6 6 6 7 8 7 6 5 4 1 2 2 2 3 3 3 3 3 4 4 4 4 4 5 5 5 6 6 6 6 6 8 7
6 9 8 6 5 4 4 5 5 5 5 5 5 5 5 4 3 4 3 2 2 2 2 2 2 3 3 3 4 4 4 4 5 5 5 5 5 6 6 7 7 7 6
5 6 9 6 5 4 4 4 5 5 5 5 5 5 6 3 3 3 3 2 1 2 2 2 2 2 3 3 4 4 5 5 5 5 5 5 6 6 6 6 7 6 7
4 4 4 4 4 4 4 4 4 4 5 5 5 5 7 4 3 3 3 2 2 1 2 2 2 2 2 3 3 4 5 5 5 5 5 6 6 6 7 7 7 7 7
4 5 4 4 4 5 5 4 4 4 4 4 4 4 4 3 3 3 3 2 2 2 2 2 3 2 2 2 2 3 4 5 5 6 6 7 7 7 7 8 8 8 8
4 4 4 4 4 3 4 4 4 4 4 4 3 3 3 3 3 3 3 2 2 1 2 2 2 3 3 2 3 3 4 5 5 5 7 8 8 7 7 8 8 8 8
3 3 3 3 4 4 4 4 4 4 4 3 3 3 3 3 3 3 3 2 2 2 2 2 3 3 4 4 4 5 7 8 7 7 6 7 8 8 8 9 8 8 8
3 3 3 3 3 3 4 4 4 4 3 3 3 2 2 3 3 3 2 2 2 2 2 2 3 4 5 5 6 8 9 9 9 9 7 7 8 9 9 9 10 9 9
Wind_Direction
265 265 270 272 270 271 262 258 258 259 259 260 260 258 255 255 252 249 250 252 252 254 252 249 250 247 244 243 241 241 244 240 251 265 251 237 226 229 228 225 218 208 206
267 273 276 280 282 281 272 267 264 263 263 261 263 261 260 260 254 251 255 255 254 255 254 252 252 248 242 242 241 241 243 236 232 253 258 237 232 221 213 215 216 207 198
278 281 284 287 286 283 279 276 272 271 272 270 267 265 263 260 256 254 253 254 254 254 253 252 250 244 244 241 239 242 243 238 221 229 245 234 229 211 198 223 189 179 197
287 288 287 285 282 280 280 276 274 274 275 273 270 268 265 263 261 260 258 257 257 256 253 253 249 241 240 238 241 239 238 232 219 216 228 218 218 206 189 191 181 161 173
296 292 285 283 283 284 286 283 280 275 277 275 273 274 270 267 264 263 262 262 260 260 258 254 246 240 241 240 243 234 225 224 212 211 216 219 214 200 203 184 179 148 51
295 291 289 289 289 289 289 289 286 283 280 280 277 276 277 277 277 275 273 269 264 259 260 256 246 239 245 245 248 240 226 219 209 208 215 207 211 204 186 171 166 173 233
294 295 296 296 296 295 297 298 290 285 282 281 280 277 277 279 281 280 276 274 264 258 255 251 249 245 244 238 240 240 235 231 218 210 208 210 205 196 180 182 185 187 217
297 297 297 297 298 300 300 297 294 290 286 283 281 282 281 281 283 283 282 275 265 257 251 242 237 238 230 224 218 221 225 223 217 211 206 206 202 188 183 183 168 126 89
295 296 295 294 295 297 297 296 296 295 290 285 285 282 282 283 283 285 283 273 262 259 252 237 226 226 228 222 204 202 202 214 199 181 186 187 181 178 171 150 149 150 177
292 292 290 289 289 290 289 291 294 293 291 293 289 283 280 280 284 287 286 271 264 262 252 233 226 222 220 212 195 184 187 192 168 144 134 132 145 161 173 175 170 171 171
294 295 294 293 290 288 289 292 295 296 297 295 292 290 284 282 287 289 291 281 262 266 247 229 218 211 209 202 195 184 185 175 155 143 135 127 124 138 148 149 161 174 180
300 300 298 296 296 300 297 296 297 296 298 297 296 297 290 286 289 293 296 291 275 259 238 208 184 175 176 181 182 168 162 155 143 140 139 144 145 146 132 115 105 100 113
305 303 302 302 298 297 296 298 302 299 295 296 296 295 299 298 296 301 305 306 293 256 193 162 153 150 149 152 149 148 148 145 143 146 151 157 147 140 123 105 90 92 82
305 306 308 309 306 304 300 298 299 300 298 295 296 296 296 300 305 308 305 312 320 153 120 125 123 122 120 117 128 129 132 150 152 152 149 144 133 127 127 126 121 113 98
306 307 310 308 306 306 303 296 293 286 288 292 289 283 287 292 297 302 299 295 281 173 135 119 121 128 127 122 124 127 130 138 137 141 141 139 137 138 133 126 124 117 115
308 309 309 308 308 308 308 310 301 296 301 297 294 291 290 289 298 302 304 301 285 219 132 126 134 141 145 147 147 141 136 141 147 144 145 147 149 143 130 120 120 121 123
300 303 305 307 308 309 311 314 318 321 320 319 321 323 317 317 319 313 308 317 304 188 119 125 134 144 148 148 149 148 148 149 147 146 148 148 143 136 133 131 127 123 122
300 301 304 302 302 303 307 309 311 315 323 328 332 334 336 335 330 326 321 352 34 83 116 134 141 141 142 148 152 149 146 144 144 145 144 142 140 136 136 134 133 132 130
302 301 301 299 300 303 307 310 312 313 314 318 326 336 341 344 347 347 347 47 124 120 117 125 132 138 139 142 148 148 148 148 146 144 139 140 141 138 136 134 132 130 126
302 305 310 307 310 313 314 316 317 317 316 319 325 331 338 349 0 358 4 38 100 114 118 123 127 135 134 140 143 145 144 142 141 140 139 141 139 136 136 136 134 133 130
305 311 316 314 315 316 317 318 316 316 319 322 325 330 338 347 350 352 4 24 76 107 117 123 123 129 134 136 141 142 143 143 143 142 140 138 135 132 132 130 128 128 127
305 306 310 310 312 316 316 314 315 315 318 320 327 336 344 355 1 5 5 10 34 80 113 121 122 124 132 138 143 146 146 146 146 141 138 136 132 130 129 129 128 128 128
303 306 310 310 308 312 316 321 321 320 321 325 329 336 344 356 1 360 355 358 18 65 87 107 118 115 107 112 130 144 150 152 153 150 144 140 136 136 136 134 133 134 134
300 302 305 307 310 310 313 316 316 315 318 322 330 336 342 347 351 348 349 356 12 62 88 103 118 126 123 119 120 121 128 133 134 139 141 142 138 137 135 133 133 135 135
302 302 305 306 310 312 310 310 311 312 315 320 327 333 338 344 345 343 346 356 12 69 96 109 118 121 125 127 128 130 131 131 132 131 130 134 133 134 134 133 133 133 131
303 302 303 304 305 305 303 303 306 309 311 317 324 329 333 336 337 338 345 359 24 70 93 103 114 120 123 121 126 131 129 127 130 129 125 132 134 135 135 133 133 132 130
Height
1433 1431 1428 1426 1424 1422 1419 1417 1415 1414 1412 1411 1409 1407 1405 1404 1403 1402 1401 1400 1398 1398 1398 1398 1397 1398 1397 1398 1398 1399 1399 1400 1398 1396 1398 1398 1399 1400 1401 1403 1404 1405 1407
1427 1425 1423 1420 1418 1415 1413 1411 1409 1407 1405 1404 1402 1400 1398 1396 1395 1394 1392 1391 1390 1389 1389 1389 1389 1390 1389 1390 1391 1391 1392 1393 1393 1392 1392 1393 1394 1395 1396 1397 1399 1401 1403
1423 1420 1417 1415 1412 1410 1407 1405 1403 1401 1398 1397 1395 1392 1390 1389 1387 1386 1385 1383 1382 1381 1380 1380 1380 1381 1381 1382 1383 1384 1385 1386 1387 1388 1387 1388 1389 1391 1392 1393 1394 1396 1399
1418 1415 1412 1409 1407 1404 1401 1399 1397 1394 1392 1389 1387 1385 1383 1381 1379 1378 1376 1375 1374 1373 1373 1373 1373 1373 1374 1375 1376 1377 1378 1379 1381 1382 1383 1383 1384 1386 1388 1388 1390 1392 1394
1413 1410 1407 1404 1401 1399 1396 1393 1391 1388 1385 1383 1380 1378 1375 1373 1371 1370 1368 1367 1366 1365 1364 1364 1365 1366 1367 1368 1369 1370 1372 1373 1375 1376 1378 1378 1380 1382 1383 1385 1387 1388 1390
1408 1405 1402 1399 1396 1393 1390 1387 1384 1381 1379 1376 1373 1370 1367 1365 1364 1362 1361 1360 1358 1357 1356 1357 1357 1359 1360 1361 1362 1364 1366 1368 1369 1371 1372 1374 1375 1378 1379 1381 1383 1385 1386
1403 1400 1397 1394 1390 1387 1384 1381 1378 1375 1372 1368 1365 1363 1360 1357 1356 1355 1353 1352 1350 1350 1350 1350 1351 1352 1353 1355 1356 1358 1360 1363 1365 1367 1367 1369 1371 1373 1375 1378 1380 1382 1383
1398 1395 1392 1389 1385 1382 1379 1375 1372 1369 1365 1362 1359 1356 1353 1350 1349 1347 1346 1344 1343 1343 1343 1343 1344 1345 1347 1349 1350 1352 1355 1357 1360 1362 1364 1365 1368 1370 1372 1374 1376 1379 1381
1393 1390 1387 1384 1381 1377 1373 1370 1366 1363 1359 1356 1353 1350 1347 1344 1343 1341 1339 1337 1336 1335 1336 1337 1338 1340 1342 1344 1346 1348 1350 1353 1356 1358 1361 1362 1364 1367 1369 1371 1373 1375 1377
1388 1385 1383 1380 1376 1372 1368 1365 1361 1357 1353 1350 1347 1344 1342 1339 1337 1335 1333 1331 1329 1329 1329 1331 1333 1335 1337 1340 1342 1344 1346 1349 1351 1354 1357 1359 1361 1363 1365 1368 1370 1373 1375
1384 1380 1377 1374 1371 1367 1363 1359 1355 1352 1348 1345 1342 1339 1337 1334 1332 1330 1328 1327 1325 1324 1324 1326 1328 1331 1333 1336 1339 1341 1343 1346 1348 1351 1353 1355 1357 1360 1362 1365 1368 1370 1372
1379 1375 1372 1369 1365 1361 1357 1353 1350 1347 1343 1340 1337 1334 1332 1330 1328 1326 1324 1323 1322 1322 1321 1323 1325 1328 1330 1333 1336 1338 1341 1344 1345 1347 1350 1352 1354 1356 1359 1362 1365 1367 1370
1373 1370 1366 1363 1359 1356 1352 1348 1345 1342 1339 1336 1333 1330 1328 1326 1324 1323 1321 1320 1319 1319 1320 1321 1323 1326 1328 1331 1334 1336 1339 1341 1342 1345 1347 1349 1352 1354 1357 1359 1362 1365 1367
1368 1365 1362 1358 1354 1351 1348 1344 1341 1338 1335 1333 1330 1327 1325 1322 1321 1319 1317 1317 1317 1317 1318 1320 1321 1324 1327 1329 1332 1334 1337 1339 1341 1343 1345 1348 1350 1352 1355 1358 1360 1363 1365
1364 1360 1357 1353 1350 1346 1343 1340 1337 1334 1332 1330 1327 1325 1322 1319 1318 1317 1316 1315 1315 1316 1317 1318 1320 1322 1325 1328 1331 1333 1335 1338 1340 1342 1344 1346 1348 1351 1353 1357 1359 1362 1364
1359 1355 1352 1349 1346 1343 1339 1336 1333 1331 1328 1326 1324 1322 1319 1318 1316 1315 1314 1314 1314 1315 1316 1317 1319 1321 1324 1326 1329 1331 1334 1336 1338 1341 1343 1345 1347 1349 1352 1355 1358 1361 1363
1354 1351 1348 1345 1342 1339 1336 1333 1329 1326 1324 1322 1320 1318 1317 1315 1314 1313 1313 1313 1313 1314 1315 1316 1318 1321 1323 1326 1328 1330 1332 1335 1337 1340 1342 1344 1347 1349 1352 1355 1358 1360 1363
1350 1347 1344 1341 1339 1336 1333 1330 1327 1324 1320 1317 1317 1315 1314 1313 1312 1311 1312 1312 1312 1313 1314 1316 1318 1320 1322 1325 1327 1329 1332 1334 1337 1339 1341 1344 1347 1349 1352 1355 1357 1360 1363
1345 1342 1340 1338 1335 1333 1330 1328 1325 1322 1320 1317 1314 1313 1312 1311 1310 1310 1310 1311 1311 1312 1314 1316 1318 1320 1322 1324 1327 1329 1331 1334 1336 1339 1341 1344 1346 1349 1352 1355 1357 1360 1363
1341 1339 1337 1334 1332 1330 1327 1325 1323 1321 1318 1316 1314 1312 1311 1310 1309 1309 1309 1310 1311 1312 1314 1316 1318 1320 1322 1324 1326 1328 1331 1333 1336 1339 1341 1344 1347 1349 1352 1355 1358 1360 1363
1337 1335 1333 1331 1329 1327 1325 1323 1321 1319 1317 1315 1313 1313 1312 1310 1309 1309 1309 1310 1311 1312 1314 1316 1318 1320 1322 1324 1326 1328 1331 1333 1336 1338 1341 1344 1347 1350 1353 1356 1358 1361 1364
1334 1332 1330 1328 1326 1325 1323 1322 1320 1318 1316 1314 1313 1312 1311 1310 1310 1309 1309 1310 1311 1313 1315 1316 1318 1320 1323 1325 1327 1329 1331 1333 1336 1339 1341 1344 1347 1350 1353 1356 1359 1362 1365
1332 1330 1328 1326 1325 1323 1322 1320 1319 1317 1315 1314 1313 1312 1311 1310 1310 1310 1310 1311 1312 1314 1315 1317 1318 1321 1323 1325 1328 1330 1332 1334 1336 1339 1342 1344 1347 1350 1353 1356 1360 1363 1366
1329 1328 1326 1324 1323 1321 1320 1319 1317 1316 1315 1313 1313 1312 1311 1310 1310 1310 1311 1312 1313 1314 1316 1318 1320 1322 1324 1326 1328 1330 1332 1335 1337 1340 1342 1345 1348 1351 1354 1357 1361 1364 1368
1327 1325 1324 1322 1321 1320 1318 1317 1316 1315 1314 1313 1312 1311 1311 1311 1310 1311 1311 1312 1313 1315 1317 1319 1321 1323 1325 1327 1328 1331 1333 1336 1338 1341 1343 1346 1349 1352 1355 1358 1362 1365 1369
1324 1323 1322 1321 1319 1318 1317 1316 1315 1314 1313 1313 1312 1312 1311 1311 1311 1311 1312 1313 1314 1316 1318 1320 1322 1324 1326 1328 1330 1332 1334 1337 1339 1342 1345 1347 1350 1353 1356 1359 1363 1367 1370